[[{"header":{"parameterUnit":"m.s-1","parameterCategory":1,"la1":30.2991,"la2":30.254,"lo1":-89.0895,"lo2":-89.0444,"dy":0.0017,"dx":0.0017,"nx":28,"ny":28,"refTime":"2026-01-01T03:00:00:Z","depth":0,"parameterNumber":2,"parameterNumberName":"U-component_of_WINDS"},"data":[0,0,0,0,0,0,0,0,0,0,0,0,0,0,0,0,0,0,0,0,0,0,0,0,0,0,0,0,0,0,0,0,0,0,0,0,0,0,0,0,0,0,0,0,0,0,0,0,0,0,0,0,0,0,0,0,0,0,1.5806,1.5806,0,1.5784,1.5784,1.5783,1.572,1.5718,1.5717,1.5715,1.5694,1.5695,1.5696,0,0,0,0,0,0,0,0,0,0,0,0,0,1.5794,1.5795,1.5806,1.5806,1.5805,1.5784,1.5784,1.5783,1.572,1.5718,1.5716,1.5715,1.5694,1.5695,1.5696,0,0,0,0,0,0,0,0,0,0,0,0,0,1.5788,1.5795,1.5806,1.5771,1.5768,1.5784,1.5784,1.5783,1.572,1.5718,1.5716,1.5714,1.5694,1.5695,1.5696,1.5745,0,0,1.5699,1.57,0,0,0,0,0,0,0,0,1.5789,1.5789,1.5776,1.5774,1.577,1.5752,1.5772,1.577,1.5721,1.5738,1.5715,1.5713,1.5715,1.5714,1.5715,1.5744,1.5743,1.5699,1.57,1.57,1.5701,0,0,0,0,0,0,0,1.5789,1.579,1.5797,1.5776,1.5772,1.5757,1.5754,1.5771,1.5739,1.5737,1.5732,1.573,1.5713,1.5714,1.5714,1.5742,1.5699,1.57,1.5701,1.5701,1.581,1.5812,0,0,0,0,0,0,1.5795,1.579,1.5798,1.5797,1.5774,1.5759,1.5755,1.576,1.5738,1.5733,1.5732,1.5727,1.5713,1.5713,1.5713,1.5769,1.57,1.5701,1.5702,1.5808,1.581,1.5813,0,0,0,0,0,0,1.5795,1.5796,1.5799,1.5792,1.5791,1.5761,1.5767,1.5761,1.5762,1.5735,1.5729,1.5739,1.5712,1.5711,1.5737,1.5767,1.5702,1.5703,1.5805,1.5808,1.5812,1.588,0,0,0,0,0,0,1.5794,1.5796,1.5814,1.5793,1.5792,1.5823,1.5769,1.5762,1.5764,1.5757,1.574,1.5735,1.571,1.5736,1.5738,1.5767,1.5704,1.5802,1.5807,1.5811,1.5875,1.5886,1.5894,0,0,0,0,0,1.5794,1.5835,1.5815,1.5817,1.5814,1.5825,1.5824,1.5794,1.5766,1.5784,1.5767,1.5735,1.5763,1.5739,1.5741,1.5771,1.58,1.5805,1.581,1.5871,1.5884,1.5894,0,0,0,0,0,0,1.586,1.5831,1.5809,1.5844,1.5838,1.5814,1.5836,1.5809,1.581,1.5804,1.5767,1.5764,1.5795,1.5785,1.5759,1.5817,1.5777,1.5782,1.5822,1.5834,1.5843,1.5845,1.5705,0,0,0,0,0,1.5879,1.589,1.5864,1.5897,1.5895,1.5866,1.587,1.5848,1.5839,1.5836,1.5821,1.5815,1.5822,1.5827,1.5832,1.5874,1.5869,1.5895,1.5905,1.5913,1.5918,1.594,1.5951,1.5829,1.5829,1.5829,0,0,1.5917,1.5903,1.5912,1.591,1.5902,1.5915,1.5864,1.588,1.5889,1.5839,1.5862,1.5851,1.5841,1.5875,1.5889,1.5868,1.5951,1.5919,1.5926,1.5927,1.5946,1.5957,1.5968,1.5833,1.5832,1.5831,0,0,1.5994,1.5984,1.601,1.6004,1.5992,1.5973,1.598,1.596,1.5951,1.5973,1.5936,1.5947,1.596,1.5955,1.5954,1.6029,1.6,1.6032,1.6082,1.6103,1.6113,1.6121,1.6148,1.6158,1.6037,1.6037,1.6037,0,1.6043,1.606,1.6028,1.6046,1.6046,1.6001,1.6027,1.6023,1.6014,1.6016,1.5992,1.6008,1.5998,1.603,1.6048,1.6049,1.6056,1.6033,1.6114,1.6122,1.6129,1.6154,1.6165,1.6041,1.6041,1.604,1.604,0,1.6122,1.6135,1.6157,1.615,1.6153,1.6175,1.6146,1.6153,1.6131,1.6114,1.6138,1.6125,1.6126,1.6132,1.6111,1.6161,1.6149,1.612,1.6079,1.6145,1.6168,1.6178,1.6047,1.6045,1.6044,1.6043,0,0,1.6239,1.6213,1.6222,1.6218,1.6202,1.6212,1.6232,1.6234,1.6241,1.6236,1.6253,1.6265,1.6239,1.6238,1.6215,1.6234,1.6295,1.6203,1.6202,1.6221,1.635,1.6371,1.6383,1.6275,1.6277,1.6279,1.6351,0,1.6311,1.6344,1.6315,1.6354,1.6365,1.6323,1.6341,1.6334,1.6319,1.6327,1.6311,1.632,1.6284,1.6284,1.63,1.6284,1.632,1.6278,1.6291,1.6292,1.6294,1.6395,1.6417,1.6486,1.6359,1.6361,1.6362,0,1.6399,1.6399,1.6439,1.6421,1.6425,1.6441,1.644,1.6448,1.644,1.6428,1.6427,1.6399,1.6419,1.6378,1.6405,1.6377,1.6381,1.6373,1.6375,1.6375,1.6331,1.6397,1.6507,1.6518,1.6376,1.6375,1.6374,0,1.648,1.649,1.6515,1.6513,1.6493,1.6505,1.6498,1.6487,1.649,1.6489,1.6491,1.6493,1.6494,1.6497,1.647,1.6444,1.65,1.6458,1.6491,1.6492,1.6505,1.6504,1.6617,1.6508,1.6508,1.6507,1.6507,0,1.6564,1.659,1.6551,1.6566,1.6595,1.6562,1.6591,1.6578,1.6569,1.6582,1.6546,1.6559,1.6523,1.6533,1.6513,1.6538,1.6538,1.6529,1.6524,1.6533,1.6534,1.6534,1.6529,1.651,1.6509,1.6509,1.6508,0,1.6659,1.6634,1.6658,1.6637,1.6633,1.6654,1.6637,1.665,1.6633,1.665,1.6652,1.6625,1.6635,1.6609,1.6614,1.66,1.6637,1.6624,1.664,1.6636,1.667,1.6667,1.6787,1.6801,1.6683,1.6685,1.6685,0,1.6713,1.6732,1.6713,1.6719,1.6713,1.6723,1.6726,1.6695,1.6699,1.6691,1.6706,1.6712,1.6715,1.6731,1.6713,1.6717,1.6703,1.6745,1.6704,1.6712,1.6704,1.6703,1.6705,1.6753,1.6755,1.6756,1.6757,0,1.6813,1.68,1.6804,1.6806,1.681,1.6809,1.6806,1.6813,1.678,1.6787,1.6795,1.6798,1.6803,1.681,1.681,1.6802,1.6775,1.677,1.6778,1.6787,1.6796,1.6791,1.6663,1.6767,1.6766,1.6766,1.6765,1.6765,1.6889,1.6904,1.6893,1.69,1.6894,1.6893,1.6904,1.6889,1.6896,1.6897,1.6879,1.6892,1.6883,1.688,1.6875,1.6885,1.6866,1.6878,1.688,1.6884,1.6889,1.6794,1.6885,1.6885,1.6884,1.6884,1.6884,0,1.6986,1.6977,1.6984,1.6981,1.6987,1.696,1.6955,1.6962,1.6973,1.6967,1.6971,1.6982,1.6988,1.6971,1.6974,1.6986,1.6973,1.6988,1.6987,1.6985,1.6906,1.6899,1.6998,1.6998,1.6998,1.6998,1.6998,1.6998,1.7037,1.7061,1.7047,1.7068,1.7059,1.7071,1.7071,1.7069,1.7064,1.7077,1.7082,1.7071,1.706,1.7063,1.7068,1.7063,1.7066,1.7085,1.7076,1.7002,1.6991,1.698,1.6973,1.7086,1.7087,1.7154,1.7155,1.7155]},{"header":{"parameterUnit":"m.s-1","parameterCategory":1,"la1":30.2991,"la2":30.254,"lo1":-89.0895,"lo2":-89.0444,"dy":0.0017,"dx":0.0017,"nx":28,"ny":28,"refTime":"2026-01-01T03:00:00:Z","depth":0,"parameterNumber":3,"parameterNumberName":"V-component_of_WINDS"},"data":[0,0,0,0,0,0,0,0,0,0,0,0,0,0,0,0,0,0,0,0,0,0,0,0,0,0,0,0,0,0,0,0,0,0,0,0,0,0,0,0,0,0,0,0,0,0,0,0,0,0,0,0,0,0,0,0,0,0,6.7232,6.7233,0,6.7327,6.7328,6.7329,6.7301,6.7299,6.7297,6.7295,6.739,6.7394,6.7399,0,0,0,0,0,0,0,0,0,0,0,0,0,6.7022,6.7026,6.7231,6.7233,6.7234,6.7327,6.7328,6.733,6.7301,6.7298,6.7296,6.7294,6.7389,6.7394,6.7399,0,0,0,0,0,0,0,0,0,0,0,0,0,6.7114,6.7027,6.7231,6.7231,6.7232,6.7327,6.7328,6.733,6.7301,6.7298,6.7295,6.7293,6.7387,6.7393,6.74,6.75,0,0,6.742,6.7423,0,0,0,0,0,0,0,0,6.7109,6.7122,6.723,6.7231,6.7232,6.7299,6.7289,6.7387,6.7302,6.7275,6.7295,6.7291,6.7362,6.7371,6.7395,6.7505,6.7509,6.7421,6.7425,6.7427,6.7429,0,0,0,0,0,0,0,6.7103,6.7118,6.7269,6.7231,6.7233,6.7225,6.7235,6.7308,6.7334,6.7277,6.7275,6.7287,6.7362,6.7389,6.7397,6.751,6.742,6.7426,6.743,6.7433,6.7709,6.7713,0,0,0,0,0,0,6.7096,6.7113,6.7266,6.7272,6.7162,6.7231,6.7242,6.7281,6.7333,6.7338,6.729,6.7285,6.7379,6.7389,6.74,6.7523,6.7427,6.7434,6.7437,6.7706,6.771,6.7714,0,0,0,0,0,0,6.7092,6.711,6.7262,6.7192,6.7211,6.7238,6.7281,6.7284,6.731,6.7343,6.7347,6.7312,6.7377,6.7391,6.7476,6.7526,6.7437,6.7443,6.7702,6.7707,6.7712,6.7768,0,0,0,0,0,0,6.7086,6.7108,6.7147,6.7193,6.7215,6.7338,6.7284,6.7288,6.7322,6.7318,6.7365,6.737,6.7376,6.7467,6.7483,6.7533,6.7448,6.7698,6.7704,6.771,6.7762,6.7774,6.7785,0,0,0,0,0,6.7078,6.7158,6.7149,6.7168,6.7264,6.734,6.7353,6.7359,6.7326,6.7366,6.7386,6.7368,6.7518,6.7476,6.7494,6.7547,6.7695,6.7703,6.771,6.7757,6.7772,6.7785,0,0,0,0,0,0,6.7116,6.7164,6.7155,6.7252,6.7293,6.7335,6.7385,6.7374,6.7424,6.7417,6.7422,6.7433,6.7521,6.7542,6.7494,6.7648,6.7601,6.7613,6.7631,6.7646,6.7657,6.765,6.7453,0,0,0,0,0,6.7136,6.7195,6.7233,6.7315,6.7336,6.7357,6.7391,6.7392,6.7434,6.745,6.7477,6.7518,6.7574,6.761,6.7664,6.7765,6.7775,6.781,6.7822,6.7831,6.7841,6.7898,6.7914,6.7739,6.7739,6.7739,0,0,6.7177,6.7211,6.7247,6.7324,6.7355,6.7416,6.7372,6.7437,6.7482,6.746,6.7543,6.7564,6.7609,6.7704,6.7746,6.7724,6.7892,6.7841,6.7848,6.7853,6.7907,6.7924,6.7939,6.7744,6.7743,6.7742,0,0,6.7283,6.7315,6.7388,6.742,6.7469,6.7483,6.75,6.7545,6.7559,6.7643,6.7628,6.7681,6.7777,6.7811,6.784,6.7961,6.7947,6.7978,6.8039,6.8094,6.8108,6.8121,6.8165,6.8181,6.7988,6.7988,6.7988,0,6.7328,6.742,6.7426,6.7494,6.7528,6.7512,6.7586,6.7617,6.768,6.7704,6.7678,6.78,6.7829,6.7932,6.7962,6.7986,6.8007,6.7973,6.8106,6.8118,6.813,6.8173,6.8189,6.7992,6.7992,6.7991,6.7991,0,6.7474,6.7537,6.759,6.7654,6.7694,6.7764,6.778,6.782,6.7818,6.7835,6.7921,6.7955,6.8016,6.8041,6.8038,6.8144,6.8129,6.8104,6.8058,6.815,6.8191,6.8207,6.7997,6.7996,6.7995,6.7994,0,0,6.7606,6.7673,6.7693,6.7722,6.7775,6.7825,6.7894,6.7955,6.799,6.8034,6.8093,6.8176,6.8154,6.8188,6.819,6.8238,6.8334,6.8208,6.8209,6.8232,6.8454,6.8473,6.8491,6.8324,6.8328,6.833,6.845,0,6.7718,6.7843,6.7851,6.7963,6.8023,6.8009,6.807,6.8109,6.8126,6.8179,6.8197,6.8257,6.8223,6.8244,6.8291,6.8312,6.8379,6.8303,6.838,6.8383,6.8371,6.8512,6.8532,6.8644,6.8466,6.8469,6.8471,0,6.7866,6.7917,6.8036,6.8083,6.8108,6.8162,6.822,6.827,6.8314,6.8324,6.8362,6.8358,6.8429,6.838,6.848,6.8428,6.846,6.8476,6.848,6.8488,6.8433,6.8526,6.868,6.8697,6.8495,6.8493,6.8491,0,6.7953,6.8051,6.8135,6.8161,6.8216,6.8256,6.828,6.8322,6.8359,6.8408,6.8432,6.8489,6.852,6.8565,6.8576,6.8539,6.8676,6.8627,6.8686,6.8686,6.8716,6.8715,6.8879,6.8735,6.8734,6.8734,6.8734,0,6.8078,6.8152,6.8176,6.8228,6.831,6.8318,6.8399,6.8421,6.8458,6.8514,6.8505,6.8557,6.8568,6.8623,6.8632,6.8714,6.8727,6.8737,6.8739,6.8739,6.8738,6.8761,6.8754,6.8739,6.8738,6.8737,6.8736,0,6.819,6.8208,6.83,6.8346,6.8359,6.8418,6.8457,6.8507,6.8523,6.8595,6.8612,6.8637,6.8702,6.8717,6.8793,6.8799,6.8897,6.889,6.8882,6.8882,6.8941,6.8936,6.9127,6.9154,6.899,6.8992,6.8993,0,6.8269,6.8326,6.8379,6.8417,6.8444,6.8504,6.8542,6.8552,6.8592,6.8647,6.8691,6.8754,6.8806,6.8909,6.8935,6.8993,6.8989,6.9052,6.8997,6.8996,6.8992,6.8989,6.8995,6.9062,6.9064,6.9065,6.9067,0,6.8409,6.8416,6.8471,6.8531,6.8577,6.8624,6.8669,6.87,6.8716,6.8761,6.8828,6.8868,6.8947,6.901,6.9069,6.9094,6.9084,6.9084,6.9101,6.9102,6.9096,6.9102,6.8912,6.9079,6.9078,6.9077,6.9076,6.9076,6.8508,6.8558,6.8604,6.8667,6.8702,6.8745,6.8795,6.8818,6.8874,6.894,6.8942,6.9015,6.9058,6.9137,6.9166,6.9223,6.9204,6.9228,6.9234,6.9241,6.9247,6.9086,6.9234,6.9233,6.9233,6.9233,6.9232,0,6.8649,6.8678,6.8735,6.88,6.8849,6.8836,6.8885,6.8927,6.8992,6.9034,6.9085,6.9162,6.9224,6.9255,6.9317,6.9356,6.9353,6.9372,6.937,6.9377,6.926,6.924,6.9374,6.9374,6.9374,6.9374,6.9374,6.9374,6.8728,6.8813,6.8826,6.8929,6.8957,6.9029,6.9059,6.9098,6.9132,6.9219,6.9271,6.9291,6.9329,6.9393,6.945,6.9457,6.9481,6.9503,6.9508,6.9399,6.9385,6.9371,6.9352,6.9508,6.9508,6.9621,6.9622,6.9622]}]]